Regional Weather Roundup
Issued by NWS Charleston, WV

Home | Current Version | Previous Version | Text Only | Print | Product List | Glossary Off
Versions: 1 2 3 4 5 6 7 8 9 10 11 12 13 14 15 16 17 18 19 20 21 22 23 24 25 26 27 28 29 30 31 32 33 34 35 36 37 38 39 40 41 42 43 44 45 46 47 48 49 50

000
ASUS41 KRLX 210910
RWRRLX
West Virginia Regional Weather Roundup
National Weather Service Charleston WV
400 AM EST WED FEB 21 2018

Note: "fair" indicates few or no clouds below 12,000 feet with no
significant weather and/or obstructions to visibility.

WVZ003-211000-
Northern Panhandle of West Virginia

CITY           SKY/WX    TMP DP  RH WIND       PRES   REMARKS
WHEELING       CLOUDY    65  51  60 S14       30.18S
$$

WVZ009-211000-
Northwest West Virginia

CITY           SKY/WX    TMP DP  RH WIND       PRES   REMARKS
PARKERSBURG    MOCLDY    68  51  54 S13       30.22S
$$

WVZ006-211000-
Western West Virginia

CITY           SKY/WX    TMP DP  RH WIND       PRES   REMARKS
HUNTINGTON       N/A     68  50  52 S12       30.20S
$$

WVZ015-211000-
West Central West Virginia

CITY           SKY/WX    TMP DP  RH WIND       PRES   REMARKS
CHARLESTON       N/A     68  52  56 S10       30.23S
$$

WVZ022-031-211000-
North Central West Virginia

CITY           SKY/WX    TMP DP  RH WIND       PRES   REMARKS
CLARKSBURG     CLOUDY    65  51  60 S8        30.23F
MORGANTOWN     MOCLDY    66  50  56 VRB6      30.24S
$$

WVZ025-035-042-045-211000-
Southern West Virginia

CITY           SKY/WX    TMP DP  RH WIND       PRES   REMARKS
BECKLEY          N/A     58  51  78 SE6       30.34S
LOGAN            N/A     66  52  59 S10G17    30.27S
BLUEFIELD        N/A     60  51  72 VRB7      30.36F
LEWISBURG      FOG       44  43  99 CALM      30.38S VSB 1/2
$$

WVZ047-211000-
Northern Mountains of West Virginia

CITY           SKY/WX    TMP DP  RH WIND       PRES   REMARKS
ELKINS           N/A     54  49  83 S6        30.30F
$$

WVZ052-211000-
Eastern Panhandle of West Virginia

CITY           SKY/WX    TMP DP  RH WIND       PRES   REMARKS
MARTINSBURG      N/A     63  53  70 S10G17    30.26F
PETERSBURG       N/A     60  51  74 E3        30.27F
$$



USA.gov is the U.S. government's official web portal to all federal, state and local government web resources and services.